GLET24 YCBG-YCBG

Flight info

Callsign GLET24
Flight time 0h 5m
Altitude 6000
Route VFR
Aircraft H60/M-SDFHITUY/C

Departure

Time 2026-04-23 11:18
Airport Cambridge Aerodrome (YCBG)

Arrival

Time 2026-04-23 11:24
Airport Cambridge Aerodrome (YCBG)
Time Latitude Longitude Altitude Speed Heading
2026-04-23 11:12 -42.82881 147.47708 37 ft 0 kts 194°
2026-04-23 11:17 -42.82917 147.47684 92 ft 21 kts 199°
2026-04-23 11:18 -42.83244 147.47554 304 ft 69 kts 195°
2026-04-23 11:18 -42.83778 147.47343 714 ft 90 kts 221°
2026-04-23 11:18 -42.84191 147.46617 967 ft 113 kts 254°
2026-04-23 11:18 -42.84464 147.45559 1114 ft 124 kts 255°
2026-04-23 11:19 -42.84732 147.44414 1299 ft 130 kts 256°
2026-04-23 11:19 -42.85117 147.43294 1347 ft 134 kts 222°
2026-04-23 11:19 -42.85989 147.42874 1347 ft 137 kts 189°
2026-04-23 11:19 -42.86938 147.42778 1408 ft 136 kts 182°
2026-04-23 11:20 -42.87850 147.42792 1428 ft 126 kts 179°
2026-04-23 11:20 -42.88685 147.42843 1574 ft 118 kts 181°
2026-04-23 11:20 -42.88863 147.42862 1612 ft 117 kts 180°
2026-04-23 11:21 -42.88939 147.42870 1627 ft 116 kts 180°
2026-04-23 11:21 -42.88979 147.42875 1641 ft 116 kts 180°
2026-04-23 11:21 -42.89762 147.42975 1890 ft 110 kts 180°
2026-04-23 11:22 -42.90501 147.43192 1898 ft 110 kts 159°
2026-04-23 11:22 -42.91199 147.43612 1623 ft 111 kts 157°
2026-04-23 11:22 -42.91796 147.44219 1304 ft 103 kts 121°
2026-04-23 11:22 -42.92144 147.45021 1080 ft 92 kts 110°
2026-04-23 11:23 -42.92259 147.45773 1159 ft 72 kts 82°
2026-04-23 11:23 -42.92094 147.46345 1192 ft 63 kts 59°
2026-04-23 11:23 -42.91694 147.46416 1042 ft 63 kts 340°
2026-04-23 11:23 -42.91398 147.45945 724 ft 60 kts 326°
2026-04-23 11:24 -42.91089 147.45635 360 ft 47 kts 328°
2026-04-23 11:24 -42.90809 147.45415 160 ft 48 kts 322°
2026-04-23 11:24 -42.90712 147.45188 54 ft 2 kts 289°
2026-04-23 11:24 -42.90704 147.45155 37 ft 0 kts 285°
2026-04-23 11:25 -42.90701 147.45154 55 ft 2 kts 291°
2026-04-23 11:26 -42.90635 147.44933 264 ft 51 kts 295°
2026-04-23 11:26 -42.90419 147.44374 627 ft 79 kts 295°
2026-04-23 11:26 -42.90137 147.43634 903 ft 95 kts 295°
2026-04-23 11:26 -42.89838 147.42811 1391 ft 97 kts 288°
2026-04-23 11:27 -42.89931 147.41940 1484 ft 103 kts 226°
2026-04-23 11:27 -42.90585 147.41993 1275 ft 111 kts 130°
2026-04-23 11:27 -42.90717 147.43003 894 ft 111 kts 91°
2026-04-23 11:27 -42.90661 147.43995 598 ft 92 kts 98°
2026-04-23 11:28 -42.90719 147.44733 406 ft 62 kts 100°
2026-04-23 11:28 -42.90734 147.45160 259 ft 26 kts 22°
2026-04-23 11:28 -42.90735 147.45217 60 ft 7 kts 301°
2026-04-23 11:28 -42.90708 147.45166 45 ft 3 kts 299°
2026-04-23 11:29 -42.90703 147.45158 37 ft 0 kts 282°
2026-04-23 11:29 -42.90682 147.45058 137 ft 29 kts 289°
2026-04-23 11:30 -42.90691 147.44624 430 ft 58 kts 269°
2026-04-23 11:30 -42.90728 147.44002 955 ft 72 kts 272°
2026-04-23 11:30 -42.90671 147.43302 1202 ft 79 kts 294°
2026-04-23 11:30 -42.90381 147.42665 1198 ft 78 kts 312°
2026-04-23 11:31 -42.89981 147.42279 1314 ft 62 kts 325°
2026-04-23 11:31 -42.89601 147.41924 1335 ft 79 kts 330°
2026-04-23 11:31 -42.89027 147.41689 1338 ft 93 kts 353°
2026-04-23 11:31 -42.88360 147.41577 1320 ft 101 kts 357°
2026-04-23 11:32 -42.87637 147.41503 1321 ft 106 kts 359°
2026-04-23 11:32 -42.86887 147.41474 1354 ft 109 kts
2026-04-23 11:32 -42.86107 147.41505 1296 ft 114 kts
2026-04-23 11:32 -42.85339 147.41760 1261 ft 112 kts 24°
2026-04-23 11:33 -42.84652 147.42169 1090 ft 109 kts 40°
2026-04-23 11:33 -42.84198 147.42925 1079 ft 100 kts 68°
2026-04-23 11:33 -42.83987 147.43752 1078 ft 86 kts 79°
2026-04-23 11:33 -42.83893 147.44509 1081 ft 76 kts 92°
2026-04-23 11:34 -42.83879 147.45190 1029 ft 69 kts 95°
2026-04-23 11:34 -42.83913 147.45819 948 ft 64 kts 96°
2026-04-23 11:34 -42.83962 147.46403 893 ft 60 kts 98°
2026-04-23 11:34 -42.83978 147.46994 800 ft 76 kts 89°
2026-04-23 11:35 -42.84005 147.47860 721 ft 105 kts 94°
2026-04-23 11:35 -42.84003 147.48828 662 ft 96 kts 78°
2026-04-23 11:35 -42.83505 147.49024 540 ft 69 kts 347°
2026-04-23 11:35 -42.83156 147.48714 263 ft 53 kts 315°
2026-04-23 11:36 -42.82972 147.48358 52 ft 37 kts 287°
2026-04-23 11:36 -42.82915 147.48090 37 ft 30 kts 287°
2026-04-23 11:36 -42.82874 147.47880 37 ft 9 kts 284°
2026-04-23 11:36 -42.82861 147.47817 37 ft 4 kts 287°
2026-04-23 11:37 -42.82854 147.47787 37 ft 3 kts 285°
2026-04-23 11:37 -42.82856 147.47754 37 ft 5 kts 256°
2026-04-23 11:37 -42.82876 147.47711 37 ft 5 kts 201°
2026-04-23 11:37 -42.82881 147.47709 37 ft 0 kts 195°